This is the latest recevied weather packets stored in our database for station/object KC9GSD. If no packets are shown the sender has not sent any weather packets the latest 10 day(s).
| Time | Temp. | Humidity | Pressure | Rain* | Wind** | Luminosity | Snow |
|---|---|---|---|---|---|---|---|
| 1778246048 | 13.89° C | 73% | 1017.5 hPa | 0 mm | - | 134 W/m² | - |
| 1778245746 | 13.33° C | 73% | 1017.6 hPa | 0 mm | - | 121 W/m² | - |
| 1778245442 | 12.78° C | 77% | 1017.4 hPa | 0 mm | - | 124 W/m² | - |
| 1778245138 | 12.78° C | 78% | 1017.7 hPa | 0 mm | - | 91 W/m² | - |
| 1778244834 | 12.22° C | 82% | 1017.6 hPa | 0 mm | - | 105 W/m² | - |
| 1778244532 | 11.67° C | 85% | 1017.9 hPa | 0 mm | - | 86 W/m² | - |
| 1778244229 | 11.67° C | 88% | 1017.7 hPa | 0 mm | - | 67 W/m² | - |
| 1778243927 | 11.11° C | 87% | 1017.7 hPa | 0 mm | - | 60 W/m² | - |
| 1778243625 | 10.56° C | 92% | 1017.8 hPa | 0 mm | - | 66 W/m² | - |
| 1778243322 | 10.56° C | 93% | 1017.7 hPa | 0 mm | - | 68 W/m² | - |
| 1778243018 | 10.56° C | 95% | 1017.8 hPa | 0 mm | - | 59 W/m² | - |
| 1778242716 | 10° C | 96% | 1017.7 hPa | 0 mm | - | 61 W/m² | - |
| 1778242414 | 10° C | 97% | 1017.8 hPa | 0 mm | - | 57 W/m² | - |
| 1778242111 | 10° C | 97% | 1017.4 hPa | 0 mm | - | 57 W/m² | - |
| 1778241809 | 10° C | 98% | 1017.4 hPa | 0 mm | - | 56 W/m² | - |
| 1778241506 | 9.44° C | 97% | 1017.4 hPa | 0 mm | - | 50 W/m² | - |
| 1778241204 | 9.44° C | 97% | 1017.5 hPa | 0 mm | - | 44 W/m² | - |
| 1778240900 | 9.44° C | 98% | 1017.2 hPa | 0 mm | - | 43 W/m² | - |
| 1778240597 | 9.44° C | 98% | 1017.4 hPa | 0 mm | - | 39 W/m² | - |
| 1778240294 | 8.89° C | 98% | 1017.2 hPa | 0 mm | - | 38 W/m² | - |
| 1778239992 | 8.89° C | 98% | 1017.1 hPa | 0 mm | - | 34 W/m² | - |
| 1778239688 | 8.89° C | 98% | 1016.9 hPa | 0 mm | - | 28 W/m² | - |
| 1778239386 | 8.89° C | 98% | 1016.8 hPa | 0 mm | - | 20 W/m² | - |
| 1778239081 | 8.89° C | 98% | 1017.1 hPa | 0 mm | - | 16 W/m² | - |
| 1778238779 | 8.89° C | 98% | 1016.8 hPa | 0 mm | - | 15 W/m² | - |
* Rain latest hour (hover to see other rain measurements)
** Current wind speed in m/s (hover to see current wind gust speed)